User: anonymous   Login
Location: Waldport
(44.4270°N, 124.0680°W)
Time: 06:16:52
(UTC-07:00)
Language:

Cosmos 1570 Rocket - Orbit

View from above orbital plane
View from above orbital plane
View from above satellite
View from above satellite

Ground track
Ground track

The orbit data is extracted from the following two-line orbital elements,

1 15032U 84056B   17264.58673127 -.00000061  00000-0 -12233-4 0  9997
2 15032  74.0677 259.9945 0016620  34.4066 325.8159 14.34718219740740
Epoch (UTC): 21 September 2017 14:04:53
Eccentricity: 0.0016620
inclination: 74.0677°
perigee height: 764 km
apogee height: 788 km
right ascension of ascending node: 259.9945°
argument of perigee: 34.4066°
revolutions per day: 14.34718219
mean anomaly at epoch: 325.8159°
orbit number at epoch: 74074

The dashed part of the orbit path shows where the satellite is in the earth's shadow,  

DLR